sat.trackr.live / text

‹ back to catalog

GLOBALSTAR M087

NORAD 52888 · 2022-064A

PAYLOAD ACTIVE UNKNOWN

§ Identity

Operator
Country
US
Launch date
2022-06-19
Launch site
AFETR
Launch vehicle
Mass (kg)
RCS (m²)

Purposes: comms

External: N2YO · Heavens-Above · Gunter

§ Orbital elements

Epoch: 2026-05-25T02:52:44.200992Z

Period
114.08 min
Inclination
51.9969°
Eccentricity
0.0000246
Mean motion
12.62268789 rev/d
Perigee alt
1,413.4 km
Apogee alt
1,413.8 km
Semi-major
7,791.7 km
B*
3.6807e-5
RAAN
132.6790°
Arg perigee
325.5412°
Mean anomaly
34.5438°
Rev number
18,822

§ Raw data

GLOBALSTAR M0871 52888U 22064A   26145.11995603 -.00000097  00000+0  36807-4 0  99912 52888  51.9969 132.6790 0000246 325.5412  34.5438 12.62268789188223

JSON: /api/v1/satellites/52888 · /tle

For live sub-satellite position, see the globe view (requires WebGL).

§ Visibility from observer

Set your observer location to see the next 7 days of passes ≥ 10°. The values pass through the URL so the page stays shareable.

No JS? Fill the form by hand. The geolocation button needs JavaScript.